Location: Newark
(43.4306°N, 0.3089°E)
Time: 08:31:22
(UTC+00:00)

Transit 2A Rocket - Pass Details

Date: 02 September 2019
Orbit: 592 x 911 km, 66.7° (Epoch: 19 September)

Event Time Altitude Azimuth Distance (km) Brightness Sun altitude
Rises 23:55:56 0° 337° (NNW) 3,005 8.9 -38.8°
Reaches altitude 10° 23:58:49 10° 354° (N) 2,039 7.9 -38.8°
Enters shadow 23:59:37 13° 2° (N) 1,813 7.6 -38.8°
